Tracking 25370 objects as of 25-Jan-2022
HD Live streaming from Space Station
objects crossing your sky now

SL-6 R/B(2)

Track SL-6 R/B(2) now!


NORAD ID: 8018
Int'l Code: 1975-063D
Perigee: 405.5 km
Apogee: 30,343.9 km
Inclination: 62.6 °
Period: 531.9 minutes
Semi major axis: 21745 km
RCS: 7.1776 m2 (large)
Launch date: July 8, 1975
Source: Commonwealth of Independent States (former USSR) (CIS)
Launch site: PLESETSK MISSILE AND SPACE COMPLEX (PKMTR)

Note: This is a ROCKET BODY
aabbcc
Your satellite tracking list
Your tracking list is empty




NASA's NSSDC Master Catalog

Two Line Element Set (TLE):
1 08018U 75063D   22024.63744118  .00000003  00000-0  69354-4 0  9996
2 08018  62.6468 265.5636 6883749 296.4462  10.3218  2.70734357338199
Source of the keplerian elements: AFSPC